contact:dominique.lefevre@mio.osupytheas.fr, maurice.libes@osupytheas.fr, didier.mallarino@osupytheas.fr
Project:EMSO http://www.emso-fr.org/EMSO-France
Depth: 2436.0 m
Title:EMSO Ligure Ouest : Data MII capteur MICROCAT
DateTime_Computer,Latitude,Longitude,Temperature,Conductivity,Pressure,DateTime_Instrument
DateTime_Computer,Latitude,Longitude,degC,S m-1,dbar,DateTime_Instrument
2021-12-08T00:02:32Z,42.805,6.029,13.3005,4.60054,2470.227,2021-12-08T02:03:59Z
2021-12-08T00:05:35Z,42.805,6.029,13.3006,4.60057,2470.203,2021-12-08T02:07:03Z
2021-12-08T00:08:38Z,42.805,6.029,13.3003,4.60068,2470.227,2021-12-08T02:10:06Z
2021-12-08T00:11:41Z,42.805,6.029,13.3003,4.60059,2470.18,2021-12-08T02:13:09Z
2021-12-08T00:14:44Z,42.805,6.029,13.3006,4.60087,2470.227,2021-12-08T02:16:12Z
2021-12-08T00:17:47Z,42.805,6.029,13.3001,4.60033,2470.203,2021-12-08T02:19:15Z
2021-12-08T00:20:50Z,42.805,6.029,13.3004,4.60068,2470.203,2021-12-08T02:22:18Z
2021-12-08T00:23:53Z,42.805,6.029,13.2999,4.60061,2470.217,2021-12-08T02:25:21Z
2021-12-08T00:26:56Z,42.805,6.029,13.3001,4.60046,2470.217,2021-12-08T02:28:24Z
2021-12-08T00:30:00Z,42.805,6.029,13.3001,4.60049,2470.227,2021-12-08T02:31:27Z
2021-12-08T00:33:03Z,42.805,6.029,13.3000,4.60087,2470.203,2021-12-08T02:34:31Z
2021-12-08T00:36:06Z,42.805,6.029,13.2999,4.60074,2470.217,2021-12-08T02:37:34Z
2021-12-08T00:39:09Z,42.805,6.029,13.2998,4.60050,2470.217,2021-12-08T02:40:37Z
2021-12-08T00:42:12Z,42.805,6.029,13.3004,4.60047,2470.217,2021-12-08T02:43:40Z
2021-12-08T00:45:15Z,42.805,6.029,13.3004,4.60051,2470.18,2021-12-08T02:46:43Z
2021-12-08T00:48:18Z,42.805,6.029,13.2998,4.60063,2470.18,2021-12-08T02:49:46Z
2021-12-08T00:51:21Z,42.805,6.029,13.3001,4.60072,2470.18,2021-12-08T02:52:49Z
2021-12-08T00:54:25Z,42.805,6.029,13.3010,4.60065,2470.156,2021-12-08T02:55:52Z
2021-12-08T00:57:28Z,42.805,6.029,13.3006,4.60068,2470.156,2021-12-08T02:58:56Z
2021-12-08T01:00:31Z,42.805,6.029,13.3027,4.60085,2470.194,2021-12-08T03:01:59Z
2021-12-08T01:03:34Z,42.805,6.029,13.3000,4.60063,2470.18,2021-12-08T03:05:02Z
2021-12-08T01:06:37Z,42.805,6.029,13.3011,4.60054,2470.194,2021-12-08T03:08:05Z
2021-12-08T01:09:40Z,42.805,6.029,13.3005,4.60063,2470.18,2021-12-08T03:11:08Z
2021-12-08T01:12:43Z,42.805,6.029,13.3003,4.60051,2470.156,2021-12-08T03:14:11Z
2021-12-08T01:15:46Z,42.805,6.029,13.3008,4.60059,2470.171,2021-12-08T03:17:14Z
2021-12-08T01:18:50Z,42.805,6.029,13.2999,4.60067,2470.18,2021-12-08T03:20:17Z
2021-12-08T01:21:53Z,42.805,6.029,13.3008,4.60066,2470.156,2021-12-08T03:23:21Z
2021-12-08T01:24:56Z,42.805,6.029,13.3007,4.60087,2470.203,2021-12-08T03:26:24Z
2021-12-08T01:27:59Z,42.805,6.029,13.3007,4.60089,2470.156,2021-12-08T03:29:27Z
2021-12-08T01:31:02Z,42.805,6.029,13.3007,4.60073,2470.133,2021-12-08T03:32:30Z
2021-12-08T01:34:05Z,42.805,6.029,13.3005,4.60064,2470.18,2021-12-08T03:35:33Z
2021-12-08T01:37:08Z,42.805,6.029,13.3011,4.60094,2470.18,2021-12-08T03:38:36Z
2021-12-08T01:40:11Z,42.805,6.029,13.3012,4.60069,2470.194,2021-12-08T03:41:39Z
2021-12-08T01:43:14Z,42.805,6.029,13.3000,4.60052,2470.18,2021-12-08T03:44:42Z
2021-12-08T01:46:18Z,42.805,6.029,13.3011,4.60054,2470.171,2021-12-08T03:47:45Z
2021-12-08T01:49:21Z,42.805,6.029,13.3008,4.60102,2470.133,2021-12-08T03:50:49Z
2021-12-08T01:52:24Z,42.805,6.029,13.3011,4.60100,2470.171,2021-12-08T03:53:52Z
2021-12-08T01:55:27Z,42.805,6.029,13.3013,4.60064,2470.147,2021-12-08T03:56:55Z
2021-12-08T01:58:30Z,42.805,6.029,13.3009,4.60074,2470.171,2021-12-08T03:59:58Z
2021-12-08T02:01:33Z,42.805,6.029,13.3010,4.60050,2470.147,2021-12-08T04:03:01Z
2021-12-08T02:04:36Z,42.805,6.029,13.3015,4.60052,2470.194,2021-12-08T04:06:04Z
2021-12-08T02:07:39Z,42.805,6.029,13.3002,4.60078,2470.171,2021-12-08T04:09:07Z
2021-12-08T02:10:43Z,42.805,6.029,13.3004,4.60069,2470.156,2021-12-08T04:12:10Z
2021-12-08T02:13:46Z,42.805,6.029,13.3007,4.60063,2470.171,2021-12-08T04:15:14Z
2021-12-08T02:16:49Z,42.805,6.029,13.3012,4.60062,2470.18,2021-12-08T04:18:17Z
2021-12-08T02:19:52Z,42.805,6.029,13.2999,4.60046,2470.18,2021-12-08T04:21:20Z
2021-12-08T02:22:55Z,42.805,6.029,13.3002,4.60065,2470.156,2021-12-08T04:24:23Z
2021-12-08T02:25:58Z,42.805,6.029,13.2998,4.60057,2470.156,2021-12-08T04:27:26Z
2021-12-08T02:29:01Z,42.805,6.029,13.3006,4.60067,2470.18,2021-12-08T04:30:29Z
2021-12-08T02:32:04Z,42.805,6.029,13.3005,4.60058,2470.133,2021-12-08T04:33:32Z
2021-12-08T02:35:07Z,42.805,6.029,13.3011,4.60051,2470.156,2021-12-08T04:36:35Z
2021-12-08T02:38:11Z,42.805,6.029,13.2998,4.60042,2470.11,2021-12-08T04:39:38Z
2021-12-08T02:41:14Z,42.805,6.029,13.3001,4.60041,2470.147,2021-12-08T04:42:42Z
2021-12-08T02:44:17Z,42.805,6.029,13.3006,4.60053,2470.194,2021-12-08T04:45:45Z
2021-12-08T02:47:21Z,42.805,6.029,13.3000,4.60052,2470.147,2021-12-08T04:48:49Z
2021-12-08T02:50:24Z,42.805,6.029,13.3015,4.60077,2470.133,2021-12-08T04:51:52Z
2021-12-08T02:53:27Z,42.805,6.029,13.3016,4.60086,2470.147,2021-12-08T04:54:55Z
2021-12-08T02:56:30Z,42.805,6.029,13.3001,4.60069,2470.194,2021-12-08T04:57:58Z
2021-12-08T02:59:33Z,42.805,6.029,13.3004,4.60061,2470.133,2021-12-08T05:01:01Z
2021-12-08T03:02:36Z,42.805,6.029,13.3010,4.60095,2470.171,2021-12-08T05:04:04Z
2021-12-08T03:05:39Z,42.805,6.029,13.3034,4.60072,2470.156,2021-12-08T05:07:07Z
2021-12-08T03:08:42Z,42.805,6.029,13.3021,4.60074,2470.156,2021-12-08T05:10:10Z
2021-12-08T03:11:46Z,42.805,6.029,13.3009,4.60077,2470.133,2021-12-08T05:13:13Z
2021-12-08T03:14:49Z,42.805,6.029,13.3005,4.60070,2470.133,2021-12-08T05:16:17Z
2021-12-08T03:17:52Z,42.805,6.029,13.3009,4.60079,2470.156,2021-12-08T05:19:20Z
2021-12-08T03:20:55Z,42.805,6.029,13.3006,4.60070,2470.11,2021-12-08T05:22:23Z
2021-12-08T03:23:58Z,42.805,6.029,13.3003,4.60066,2470.171,2021-12-08T05:25:26Z
2021-12-08T03:27:01Z,42.805,6.029,13.3000,4.60057,2470.11,2021-12-08T05:28:29Z
2021-12-08T03:30:04Z,42.805,6.029,13.2999,4.60063,2470.11,2021-12-08T05:31:32Z
2021-12-08T03:33:07Z,42.805,6.029,13.3000,4.60070,2470.124,2021-12-08T05:34:35Z
2021-12-08T03:36:11Z,42.805,6.029,13.2998,4.60049,2470.133,2021-12-08T05:37:38Z
2021-12-08T03:39:14Z,42.805,6.029,13.3006,4.60050,2470.147,2021-12-08T05:40:42Z
2021-12-08T03:42:17Z,42.805,6.029,13.3009,4.60089,2470.124,2021-12-08T05:43:45Z
2021-12-08T03:45:20Z,42.805,6.029,13.3005,4.60056,2470.147,2021-12-08T05:46:48Z
2021-12-08T03:48:23Z,42.805,6.029,13.3011,4.60059,2470.147,2021-12-08T05:49:51Z
2021-12-08T03:51:26Z,42.805,6.029,13.3006,4.60053,2470.124,2021-12-08T05:52:54Z
2021-12-08T03:54:29Z,42.805,6.029,13.3002,4.60058,2470.133,2021-12-08T05:55:57Z
2021-12-08T03:57:32Z,42.805,6.029,13.2998,4.60059,2470.124,2021-12-08T05:59:00Z
2021-12-08T04:00:36Z,42.805,6.029,13.3000,4.60037,2470.171,2021-12-08T06:02:03Z
2021-12-08T04:03:39Z,42.805,6.029,13.3009,4.60071,2470.147,2021-12-08T06:05:07Z
2021-12-08T04:06:42Z,42.805,6.029,13.3013,4.60086,2470.171,2021-12-08T06:08:10Z
2021-12-08T04:09:45Z,42.805,6.029,13.3004,4.60059,2470.133,2021-12-08T06:11:13Z
2021-12-08T04:12:48Z,42.805,6.029,13.3005,4.60057,2470.119,2021-12-08T06:14:16Z
2021-12-08T04:15:51Z,42.805,6.029,13.3000,4.60059,2470.124,2021-12-08T06:17:19Z
2021-12-08T04:18:54Z,42.805,6.029,13.3003,4.60041,2470.11,2021-12-08T06:20:22Z
2021-12-08T04:21:57Z,42.805,6.029,13.3009,4.60065,2470.124,2021-12-08T06:23:25Z
2021-12-08T04:25:00Z,42.805,6.029,13.3004,4.60092,2470.147,2021-12-08T06:26:28Z
2021-12-08T04:28:04Z,42.805,6.029,13.3014,4.60084,2470.133,2021-12-08T06:29:31Z
2021-12-08T04:31:07Z,42.805,6.029,13.3006,4.60067,2470.156,2021-12-08T06:32:35Z
2021-12-08T04:34:10Z,42.805,6.029,13.3004,4.60057,2470.147,2021-12-08T06:35:38Z
2021-12-08T04:37:13Z,42.805,6.029,13.3003,4.60096,2470.194,2021-12-08T06:38:41Z
2021-12-08T04:40:16Z,42.805,6.029,13.3011,4.60077,2470.133,2021-12-08T06:41:44Z
2021-12-08T04:43:19Z,42.805,6.029,13.2998,4.60077,2470.156,2021-12-08T06:44:47Z
2021-12-08T04:46:22Z,42.805,6.029,13.3021,4.60087,2470.171,2021-12-08T06:47:50Z
2021-12-08T04:49:25Z,42.805,6.029,13.3004,4.60085,2470.133,2021-12-08T06:50:53Z
2021-12-08T04:52:29Z,42.805,6.029,13.3015,4.60079,2470.156,2021-12-08T06:53:56Z
2021-12-08T04:55:32Z,42.805,6.029,13.3007,4.60064,2470.133,2021-12-08T06:57:00Z
2021-12-08T04:58:35Z,42.805,6.029,13.3011,4.60078,2470.156,2021-12-08T07:00:03Z
2021-12-08T05:01:38Z,42.805,6.029,13.3001,4.60074,2470.156,2021-12-08T07:03:06Z
2021-12-08T05:04:41Z,42.805,6.029,13.3016,4.60085,2470.156,2021-12-08T07:06:09Z
2021-12-08T05:07:44Z,42.805,6.029,13.3019,4.60098,2470.171,2021-12-08T07:09:12Z
2021-12-08T05:10:47Z,42.805,6.029,13.3025,4.60092,2470.156,2021-12-08T07:12:15Z
2021-12-08T05:13:50Z,42.805,6.029,13.3008,4.60092,2470.133,2021-12-08T07:15:18Z
2021-12-08T05:16:53Z,42.805,6.029,13.3015,4.60080,2470.156,2021-12-08T07:18:21Z
2021-12-08T05:19:57Z,42.805,6.029,13.3015,4.60070,2470.133,2021-12-08T07:21:24Z
2021-12-08T05:23:00Z,42.805,6.029,13.3015,4.60077,2470.171,2021-12-08T07:24:28Z
2021-12-08T05:26:03Z,42.805,6.029,13.3000,4.60061,2470.18,2021-12-08T07:27:31Z
2021-12-08T05:29:06Z,42.805,6.029,13.3027,4.60088,2470.156,2021-12-08T07:30:34Z
2021-12-08T05:32:09Z,42.805,6.029,13.3014,4.60080,2470.156,2021-12-08T07:33:37Z
2021-12-08T05:35:12Z,42.805,6.029,13.3013,4.60064,2470.203,2021-12-08T07:36:40Z
2021-12-08T05:38:15Z,42.805,6.029,13.3013,4.60081,2470.194,2021-12-08T07:39:43Z
2021-12-08T05:41:18Z,42.805,6.029,13.3010,4.60089,2470.194,2021-12-08T07:42:46Z
2021-12-08T05:44:22Z,42.805,6.029,13.3013,4.60107,2470.217,2021-12-08T07:45:49Z
2021-12-08T05:47:25Z,42.805,6.029,13.3015,4.60079,2470.156,2021-12-08T07:48:53Z
2021-12-08T05:50:28Z,42.805,6.029,13.3009,4.60081,2470.203,2021-12-08T07:51:56Z
2021-12-08T05:53:31Z,42.805,6.029,13.3015,4.60069,2470.194,2021-12-08T07:54:59Z
2021-12-08T05:56:34Z,42.805,6.029,13.3012,4.60084,2470.227,2021-12-08T07:58:02Z
2021-12-08T05:59:37Z,42.805,6.029,13.3005,4.60094,2470.203,2021-12-08T08:01:05Z
2021-12-08T06:02:40Z,42.805,6.029,13.3013,4.60117,2470.24,2021-12-08T08:04:08Z
2021-12-08T06:05:43Z,42.805,6.029,13.3032,4.60080,2470.227,2021-12-08T08:07:11Z
2021-12-08T06:08:46Z,42.805,6.029,13.3006,4.60096,2470.227,2021-12-08T08:10:14Z
2021-12-08T06:11:50Z,42.805,6.029,13.3014,4.60080,2470.227,2021-12-08T08:13:17Z
2021-12-08T06:14:53Z,42.805,6.029,13.3009,4.60059,2470.227,2021-12-08T08:16:21Z
2021-12-08T06:17:56Z,42.805,6.029,13.3025,4.60099,2470.227,2021-12-08T08:19:24Z
2021-12-08T06:20:59Z,42.805,6.029,13.3015,4.60077,2470.25,2021-12-08T08:22:27Z
2021-12-08T06:24:02Z,42.805,6.029,13.3001,4.60090,2470.203,2021-12-08T08:25:30Z
2021-12-08T06:27:05Z,42.805,6.029,13.3009,4.60059,2470.25,2021-12-08T08:28:33Z
2021-12-08T06:30:08Z,42.805,6.029,13.3008,4.60076,2470.25,2021-12-08T08:31:36Z
2021-12-08T06:33:11Z,42.805,6.029,13.3009,4.60110,2470.25,2021-12-08T08:34:39Z
2021-12-08T06:36:15Z,42.805,6.029,13.3002,4.60047,2470.264,2021-12-08T08:37:42Z
2021-12-08T06:39:18Z,42.805,6.029,13.3010,4.60062,2470.24,2021-12-08T08:40:46Z
2021-12-08T06:42:21Z,42.805,6.029,13.3026,4.60082,2470.297,2021-12-08T08:43:49Z
2021-12-08T06:45:24Z,42.805,6.029,13.3013,4.60102,2470.297,2021-12-08T08:46:52Z
2021-12-08T06:48:27Z,42.805,6.029,13.3006,4.60097,2470.273,2021-12-08T08:49:55Z
2021-12-08T06:51:30Z,42.805,6.029,13.3014,4.60129,2470.31,2021-12-08T08:52:58Z
2021-12-08T06:54:33Z,42.805,6.029,13.3024,4.60110,2470.273,2021-12-08T08:56:01Z
2021-12-08T06:57:36Z,42.805,6.029,13.3024,4.60105,2470.32,2021-12-08T08:59:04Z
2021-12-08T07:00:39Z,42.805,6.029,13.3031,4.60118,2470.25,2021-12-08T09:02:07Z
2021-12-08T07:03:43Z,42.805,6.029,13.3005,4.60087,2470.287,2021-12-08T09:05:10Z
2021-12-08T07:06:46Z,42.805,6.029,13.3011,4.60094,2470.31,2021-12-08T09:08:14Z
2021-12-08T07:09:49Z,42.805,6.029,13.3011,4.60072,2470.31,2021-12-08T09:11:17Z
2021-12-08T07:12:52Z,42.805,6.029,13.3012,4.60105,2470.343,2021-12-08T09:14:20Z
2021-12-08T07:15:55Z,42.805,6.029,13.3009,4.60087,2470.32,2021-12-08T09:17:23Z
2021-12-08T07:18:58Z,42.805,6.029,13.3001,4.60074,2470.32,2021-12-08T09:20:26Z
2021-12-08T07:22:01Z,42.805,6.029,13.3010,4.60069,2470.334,2021-12-08T09:23:29Z
2021-12-08T07:25:04Z,42.805,6.029,13.3029,4.60092,2470.32,2021-12-08T09:26:32Z
2021-12-08T07:28:08Z,42.805,6.029,13.3007,4.60084,2470.32,2021-12-08T09:29:35Z
2021-12-08T07:31:11Z,42.805,6.029,13.3015,4.60099,2470.357,2021-12-08T09:32:39Z
2021-12-08T07:34:14Z,42.805,6.029,13.3001,4.60081,2470.357,2021-12-08T09:35:42Z
2021-12-08T07:37:17Z,42.805,6.029,13.3005,4.60089,2470.357,2021-12-08T09:38:45Z
2021-12-08T07:40:20Z,42.805,6.029,13.3003,4.60062,2470.38,2021-12-08T09:41:48Z
2021-12-08T07:43:23Z,42.805,6.029,13.3006,4.60079,2470.357,2021-12-08T09:44:51Z
2021-12-08T07:46:26Z,42.805,6.029,13.3019,4.60120,2470.343,2021-12-08T09:47:54Z
2021-12-08T07:49:29Z,42.805,6.029,13.3020,4.60085,2470.366,2021-12-08T09:50:57Z
2021-12-08T07:52:32Z,42.805,6.029,13.3019,4.60087,2470.357,2021-12-08T09:54:00Z
2021-12-08T07:55:36Z,42.805,6.029,13.3011,4.60072,2470.343,2021-12-08T09:57:03Z
2021-12-08T07:58:39Z,42.805,6.029,13.3012,4.60043,2470.39,2021-12-08T10:00:07Z
2021-12-08T08:01:42Z,42.805,6.029,13.3009,4.60076,2470.38,2021-12-08T10:03:10Z
2021-12-08T08:04:45Z,42.805,6.029,13.2999,4.60058,2470.404,2021-12-08T10:06:13Z
2021-12-08T08:07:48Z,42.805,6.029,13.3010,4.60094,2470.39,2021-12-08T10:09:16Z
2021-12-08T08:10:51Z,42.805,6.029,13.3021,4.60061,2470.413,2021-12-08T10:12:19Z
2021-12-08T08:13:54Z,42.805,6.029,13.3014,4.60070,2470.413,2021-12-08T10:15:22Z
2021-12-08T08:16:57Z,42.805,6.029,13.3005,4.60104,2470.39,2021-12-08T10:18:25Z
2021-12-08T08:20:01Z,42.805,6.029,13.3010,4.60084,2470.366,2021-12-08T10:21:28Z
2021-12-08T08:23:04Z,42.805,6.029,13.3002,4.60072,2470.353,2021-12-08T10:24:32Z
2021-12-08T08:26:07Z,42.805,6.029,13.3010,4.60082,2470.413,2021-12-08T10:27:35Z
2021-12-08T08:29:10Z,42.805,6.029,13.3004,4.60067,2470.404,2021-12-08T10:30:38Z
2021-12-08T08:32:13Z,42.805,6.029,13.3013,4.60036,2470.404,2021-12-08T10:33:41Z
2021-12-08T08:35:16Z,42.805,6.029,13.3021,4.60092,2470.404,2021-12-08T10:36:44Z
2021-12-08T08:38:19Z,42.805,6.029,13.3026,4.60106,2470.404,2021-12-08T10:39:47Z
2021-12-08T08:41:22Z,42.805,6.029,13.3008,4.60084,2470.413,2021-12-08T10:42:50Z
2021-12-08T08:44:26Z,42.805,6.029,13.3007,4.60056,2470.404,2021-12-08T10:45:53Z
2021-12-08T08:47:29Z,42.805,6.029,13.3009,4.60060,2470.39,2021-12-08T10:48:57Z
2021-12-08T08:50:32Z,42.805,6.029,13.3004,4.60074,2470.437,2021-12-08T10:52:00Z
2021-12-08T08:53:35Z,42.805,6.029,13.3004,4.60081,2470.413,2021-12-08T10:55:03Z
2021-12-08T08:56:38Z,42.805,6.029,13.3015,4.60097,2470.427,2021-12-08T10:58:06Z
2021-12-08T08:59:41Z,42.805,6.029,13.3004,4.60109,2470.413,2021-12-08T11:01:09Z
2021-12-08T09:02:44Z,42.805,6.029,13.3006,4.60067,2470.437,2021-12-08T11:04:12Z
2021-12-08T09:05:47Z,42.805,6.029,13.3006,4.60044,2470.427,2021-12-08T11:07:15Z
2021-12-08T09:08:51Z,42.805,6.029,13.3007,4.60066,2470.46,2021-12-08T11:10:18Z
2021-12-08T09:11:54Z,42.805,6.029,13.3017,4.60084,2470.497,2021-12-08T11:13:22Z
2021-12-08T09:14:57Z,42.805,6.029,13.3015,4.60072,2470.46,2021-12-08T11:16:25Z
2021-12-08T09:18:00Z,42.805,6.029,13.3007,4.60074,2470.474,2021-12-08T11:19:28Z
2021-12-08T09:21:03Z,42.805,6.029,13.2998,4.60081,2470.46,2021-12-08T11:22:31Z
2021-12-08T09:24:06Z,42.805,6.029,13.3000,4.60081,2470.46,2021-12-08T11:25:34Z
2021-12-08T09:27:09Z,42.805,6.029,13.3003,4.60087,2470.474,2021-12-08T11:28:37Z
2021-12-08T09:30:12Z,42.805,6.029,13.3006,4.60120,2470.46,2021-12-08T11:31:40Z
2021-12-08T09:33:16Z,42.805,6.029,13.3004,4.60110,2470.46,2021-12-08T11:34:43Z
2021-12-08T09:36:19Z,42.805,6.029,13.3006,4.60126,2470.46,2021-12-08T11:37:47Z
2021-12-08T09:39:22Z,42.805,6.029,13.3014,4.60092,2470.45,2021-12-08T11:40:50Z
2021-12-08T09:42:25Z,42.805,6.029,13.3010,4.60089,2470.46,2021-12-08T11:43:53Z
2021-12-08T09:45:28Z,42.805,6.029,13.3005,4.60051,2470.497,2021-12-08T11:46:56Z
2021-12-08T09:48:31Z,42.805,6.029,13.3021,4.60060,2470.474,2021-12-08T11:49:59Z
2021-12-08T09:51:34Z,42.805,6.029,13.3024,4.60077,2470.497,2021-12-08T11:53:02Z
2021-12-08T09:54:37Z,42.805,6.029,13.3027,4.60034,2470.474,2021-12-08T11:56:05Z
2021-12-08T09:57:41Z,42.805,6.029,13.3034,4.60053,2470.497,2021-12-08T11:59:08Z
2021-12-08T10:00:44Z,42.805,6.029,13.3025,4.60102,2470.497,2021-12-08T12:02:12Z
2021-12-08T10:03:47Z,42.805,6.029,13.3024,4.60083,2470.45,2021-12-08T12:05:15Z
2021-12-08T10:06:50Z,42.805,6.029,13.3042,4.60079,2470.46,2021-12-08T12:08:18Z
2021-12-08T10:09:53Z,42.805,6.029,13.3054,4.60056,2470.46,2021-12-08T12:11:21Z
2021-12-08T10:12:56Z,42.805,6.029,13.3017,4.60090,2470.46,2021-12-08T12:14:24Z
2021-12-08T10:15:59Z,42.805,6.029,13.3027,4.60113,2470.474,2021-12-08T12:17:27Z
2021-12-08T10:19:02Z,42.805,6.029,13.3036,4.60113,2470.483,2021-12-08T12:20:30Z
2021-12-08T10:22:05Z,42.805,6.029,13.3025,4.60110,2470.497,2021-12-08T12:23:33Z
2021-12-08T10:25:09Z,42.805,6.029,13.3048,4.60099,2470.483,2021-12-08T12:26:37Z
2021-12-08T10:28:12Z,42.805,6.029,13.3031,4.60062,2470.474,2021-12-08T12:29:40Z
2021-12-08T10:31:15Z,42.805,6.029,13.3048,4.60084,2470.46,2021-12-08T12:32:43Z
2021-12-08T10:34:18Z,42.805,6.029,13.3085,4.60092,2470.497,2021-12-08T12:35:46Z
2021-12-08T10:37:21Z,42.805,6.029,13.3079,4.60072,2470.46,2021-12-08T12:38:49Z
2021-12-08T10:40:24Z,42.805,6.029,13.3076,4.60078,2470.46,2021-12-08T12:41:52Z
2021-12-08T10:43:27Z,42.805,6.029,13.3070,4.60043,2470.474,2021-12-08T12:44:55Z
2021-12-08T10:46:31Z,42.805,6.029,13.3068,4.60033,2470.483,2021-12-08T12:47:58Z
2021-12-08T10:49:34Z,42.805,6.029,13.3031,4.60062,2470.46,2021-12-08T12:51:02Z
2021-12-08T10:52:37Z,42.805,6.029,13.3011,4.60055,2470.46,2021-12-08T12:54:05Z
2021-12-08T10:55:40Z,42.805,6.029,13.2997,4.60042,2470.497,2021-12-08T12:57:08Z
2021-12-08T10:58:43Z,42.805,6.029,13.2996,4.60036,2470.46,2021-12-08T13:00:11Z
2021-12-08T11:01:46Z,42.805,6.029,13.2993,4.60034,2470.474,2021-12-08T13:03:14Z
2021-12-08T11:04:49Z,42.805,6.029,13.2996,4.60033,2470.413,2021-12-08T13:06:17Z
2021-12-08T11:07:52Z,42.805,6.029,13.2991,4.60033,2470.483,2021-12-08T13:09:20Z
2021-12-08T11:10:55Z,42.805,6.029,13.2995,4.60036,2470.497,2021-12-08T13:12:23Z
2021-12-08T11:13:59Z,42.805,6.029,13.2995,4.60045,2470.474,2021-12-08T13:15:27Z
2021-12-08T11:17:02Z,42.805,6.029,13.2994,4.60035,2470.497,2021-12-08T13:18:30Z
2021-12-08T11:20:05Z,42.805,6.029,13.2993,4.60029,2470.46,2021-12-08T13:21:33Z
2021-12-08T11:23:08Z,42.805,6.029,13.3010,4.60031,2470.483,2021-12-08T13:24:36Z
2021-12-08T11:26:11Z,42.805,6.029,13.2998,4.60035,2470.46,2021-12-08T13:27:39Z
2021-12-08T11:29:14Z,42.805,6.029,13.2998,4.60044,2470.474,2021-12-08T13:30:42Z
2021-12-08T11:32:17Z,42.805,6.029,13.3037,4.60058,2470.45,2021-12-08T13:33:45Z
2021-12-08T11:35:21Z,42.805,6.029,13.3011,4.60035,2470.474,2021-12-08T13:36:48Z
2021-12-08T11:38:24Z,42.805,6.029,13.3041,4.60039,2470.437,2021-12-08T13:39:52Z
2021-12-08T11:41:27Z,42.805,6.029,13.3036,4.60056,2470.45,2021-12-08T13:42:55Z
2021-12-08T11:44:30Z,42.805,6.029,13.3012,4.60061,2470.474,2021-12-08T13:45:58Z
2021-12-08T11:47:33Z,42.805,6.029,13.3022,4.60031,2470.46,2021-12-08T13:49:01Z
2021-12-08T11:50:36Z,42.805,6.029,13.3028,4.60029,2470.46,2021-12-08T13:52:04Z
2021-12-08T11:53:39Z,42.805,6.029,13.3020,4.60046,2470.437,2021-12-08T13:55:07Z
2021-12-08T11:56:42Z,42.805,6.029,13.3026,4.60053,2470.474,2021-12-08T13:58:10Z
2021-12-08T11:59:45Z,42.805,6.029,13.3031,4.60077,2470.437,2021-12-08T14:01:13Z
2021-12-08T12:02:49Z,42.805,6.029,13.3026,4.60038,2470.45,2021-12-08T14:04:17Z
2021-12-08T12:05:52Z,42.805,6.029,13.3038,4.60034,2470.427,2021-12-08T14:07:20Z
2021-12-08T12:08:55Z,42.805,6.029,13.3029,4.60046,2470.45,2021-12-08T14:10:23Z
2021-12-08T12:11:58Z,42.805,6.029,13.3029,4.60064,2470.45,2021-12-08T14:13:26Z
2021-12-08T12:15:01Z,42.805,6.029,13.3028,4.60109,2470.437,2021-12-08T14:16:29Z
2021-12-08T12:18:04Z,42.805,6.029,13.3030,4.60122,2470.437,2021-12-08T14:19:32Z
2021-12-08T12:21:07Z,42.805,6.029,13.3015,4.60128,2470.45,2021-12-08T14:22:35Z
2021-12-08T12:24:10Z,42.805,6.029,13.3024,4.60109,2470.46,2021-12-08T14:25:38Z
2021-12-08T12:27:14Z,42.805,6.029,13.3022,4.60117,2470.437,2021-12-08T14:28:42Z
2021-12-08T12:30:17Z,42.805,6.029,13.3029,4.60087,2470.45,2021-12-08T14:31:45Z
2021-12-08T12:33:20Z,42.805,6.029,13.3029,4.60087,2470.437,2021-12-08T14:34:48Z
2021-12-08T12:36:23Z,42.805,6.029,13.3037,4.60087,2470.45,2021-12-08T14:37:51Z
2021-12-08T12:39:26Z,42.805,6.029,13.3026,4.60080,2470.45,2021-12-08T14:40:54Z
2021-12-08T12:42:29Z,42.805,6.029,13.3034,4.60099,2470.437,2021-12-08T14:43:57Z
2021-12-08T12:45:32Z,42.805,6.029,13.3032,4.60082,2470.437,2021-12-08T14:47:00Z
2021-12-08T12:48:35Z,42.805,6.029,13.3028,4.60068,2470.45,2021-12-08T14:50:03Z
2021-12-08T12:51:39Z,42.805,6.029,13.3043,4.60119,2470.427,2021-12-08T14:53:06Z
2021-12-08T12:54:42Z,42.805,6.029,13.3021,4.60099,2470.45,2021-12-08T14:56:10Z
2021-12-08T12:57:45Z,42.805,6.029,13.3016,4.60072,2470.427,2021-12-08T14:59:13Z
2021-12-08T13:00:48Z,42.805,6.029,13.3027,4.60117,2470.413,2021-12-08T15:02:16Z
2021-12-08T13:03:51Z,42.805,6.029,13.3024,4.60131,2470.427,2021-12-08T15:05:19Z
2021-12-08T13:06:54Z,42.805,6.029,13.3034,4.60095,2470.427,2021-12-08T15:08:22Z
2021-12-08T13:09:57Z,42.805,6.029,13.3013,4.60104,2470.404,2021-12-08T15:11:25Z
2021-12-08T13:13:00Z,42.805,6.029,13.3031,4.60106,2470.427,2021-12-08T15:14:28Z
2021-12-08T13:16:04Z,42.805,6.029,13.3023,4.60073,2470.413,2021-12-08T15:17:31Z
2021-12-08T13:19:07Z,42.805,6.029,13.3030,4.60132,2470.427,2021-12-08T15:20:35Z
2021-12-08T13:22:10Z,42.805,6.029,13.3019,4.60119,2470.39,2021-12-08T15:23:38Z
2021-12-08T13:25:13Z,42.805,6.029,13.3018,4.60112,2470.39,2021-12-08T15:26:41Z
2021-12-08T13:28:16Z,42.805,6.029,13.3012,4.60107,2470.427,2021-12-08T15:29:44Z
2021-12-08T13:31:19Z,42.805,6.029,13.3010,4.60104,2470.413,2021-12-08T15:32:47Z
2021-12-08T13:34:22Z,42.805,6.029,13.3006,4.60062,2470.404,2021-12-08T15:35:50Z
2021-12-08T13:37:25Z,42.805,6.029,13.3012,4.60084,2470.404,2021-12-08T15:38:53Z
2021-12-08T13:40:29Z,42.805,6.029,13.3012,4.60108,2470.413,2021-12-08T15:41:56Z
2021-12-08T13:43:32Z,42.805,6.029,13.3015,4.60124,2470.45,2021-12-08T15:45:00Z
2021-12-08T13:46:35Z,42.805,6.029,13.3013,4.60132,2470.38,2021-12-08T15:48:03Z
2021-12-08T13:49:38Z,42.805,6.029,13.3023,4.60069,2470.38,2021-12-08T15:51:06Z
2021-12-08T13:52:41Z,42.805,6.029,13.3011,4.60122,2470.404,2021-12-08T15:54:09Z
2021-12-08T13:55:44Z,42.805,6.029,13.3024,4.60085,2470.39,2021-12-08T15:57:12Z
2021-12-08T13:58:47Z,42.805,6.029,13.3015,4.60089,2470.404,2021-12-08T16:00:15Z
2021-12-08T14:01:50Z,42.805,6.029,13.3025,4.60122,2470.366,2021-12-08T16:03:18Z
2021-12-08T14:04:54Z,42.805,6.029,13.3020,4.60095,2470.366,2021-12-08T16:06:21Z
2021-12-08T14:07:57Z,42.805,6.029,13.3022,4.60084,2470.38,2021-12-08T16:09:25Z
2021-12-08T14:11:00Z,42.805,6.029,13.3025,4.60130,2470.404,2021-12-08T16:12:28Z
2021-12-08T14:14:03Z,42.805,6.029,13.3017,4.60092,2470.366,2021-12-08T16:15:31Z
2021-12-08T14:17:06Z,42.805,6.029,13.3011,4.60108,2470.38,2021-12-08T16:18:34Z
2021-12-08T14:20:09Z,42.805,6.029,13.3014,4.60127,2470.366,2021-12-08T16:21:37Z
2021-12-08T14:23:12Z,42.805,6.029,13.3011,4.60108,2470.366,2021-12-08T16:24:40Z
2021-12-08T14:26:15Z,42.805,6.029,13.3016,4.60099,2470.366,2021-12-08T16:27:43Z
2021-12-08T14:29:19Z,42.805,6.029,13.3033,4.60102,2470.343,2021-12-08T16:30:46Z
2021-12-08T14:32:22Z,42.805,6.029,13.3027,4.60109,2470.343,2021-12-08T16:33:50Z
2021-12-08T14:35:25Z,42.805,6.029,13.3026,4.60088,2470.357,2021-12-08T16:36:53Z
2021-12-08T14:38:28Z,42.805,6.029,13.3022,4.60129,2470.32,2021-12-08T16:39:56Z
2021-12-08T14:41:31Z,42.805,6.029,13.3006,4.60099,2470.32,2021-12-08T16:42:59Z
2021-12-08T14:44:34Z,42.805,6.029,13.3013,4.60104,2470.343,2021-12-08T16:46:02Z
2021-12-08T14:47:37Z,42.805,6.029,13.3025,4.60085,2470.357,2021-12-08T16:49:05Z
2021-12-08T14:50:40Z,42.805,6.029,13.3020,4.60113,2470.366,2021-12-08T16:52:08Z
2021-12-08T14:53:43Z,42.805,6.029,13.3013,4.60110,2470.357,2021-12-08T16:55:11Z
2021-12-08T14:56:47Z,42.805,6.029,13.3009,4.60103,2470.334,2021-12-08T16:58:15Z
2021-12-08T14:59:50Z,42.805,6.029,13.3008,4.60085,2470.32,2021-12-08T17:01:18Z
2021-12-08T15:02:53Z,42.805,6.029,13.3011,4.60084,2470.334,2021-12-08T17:04:21Z